Location: Unspecified
(0.0000°N, 0.0000°E)
Time: 00:48:12
(UTC+00:00)

Traac - Pass Details

Date: 21 December 2025
Orbit: 951 x 1102 km, 32.4° (Epoch: 19 January)

Event Time Altitude Azimuth Distance (km) Brightness Sun altitude
Exits shadow 02:56:14 30° 83° (E) 1,803 9.6 -40.8°
Drops below altitude 10° 02:59:59 10° 104° (ESE) 2,893 11.1 -40.0°
Sets 03:02:54 0° 111° (ESE) 3,869 12.0 -39.4°
